Time,TemperatureF,DewpointF,PressureIn,WindDirection,WindDirectionDegrees,WindSpeedMPH,WindSpeedGustMPH,Humidity,HourlyPrecipIn,Conditions,Clouds,dailyrainin,SoftwareType,DateUTC
2013-04-15 12:14:00,41.2,31.0,29.87,North,0,31.1,0.0,67,0.00,CLR,SCT,0.00,WeatherDisplay:10.37,2013-04-15 19:14:00,
2013-04-15 12:15:00,41.2,31.0,29.87,NNW,344,31.1,31.1,67,0.00,CLR,SCT,0.00,WeatherDisplay:10.37,2013-04-15 19:15:00,
2013-04-15 12:20:00,41.2,27.9,29.87,WNW,283,9.2,9.2,59,0.00,CLR,SCT,0.00,WeatherDisplay:10.37,2013-04-15 19:20:00,
2013-04-15 12:25:00,41.7,30.0,29.87,West,263,8.1,8.1,63,0.00,CLR,SCT,0.00,WeatherDisplay:10.37,2013-04-15 19:25:00,
2013-04-15 12:31:00,42.4,27.4,29.87,West,271,8.1,8.1,55,0.00,CLR,SCT,0.00,WeatherDisplay:10.37,2013-04-15 19:31:00,
2013-04-15 12:37:00,43.5,30.1,29.87,WNW,291,9.2,9.2,59,0.00,CLR,SCT,0.00,WeatherDisplay:10.37,2013-04-15 19:37:00,
2013-04-15 12:43:00,44.6,26.6,29.87,West,277,10.1,10.1,49,0.00,CLR,SCT,0.00,WeatherDisplay:10.37,2013-04-15 19:43:00,
2013-04-15 12:48:00,45.5,28.9,29.87,WSW,255,8.1,8.1,52,0.00,CLR,SCT,0.00,WeatherDisplay:10.37,2013-04-15 19:48:00,
2013-04-15 12:54:00,46.8,27.6,29.87,West,269,8.1,8.1,47,0.00,CLR,SCT,0.00,WeatherDisplay:10.37,2013-04-15 19:54:00,
2013-04-15 12:57:00,47.5,29.3,29.87,WNW,287,5.8,5.8,49,0.00,CLR,SCT,0.00,WeatherDisplay:10.37,2013-04-15 19:57:00,
2013-04-15 13:02:00,48.0,28.7,29.87,WNW,291,10.4,10.4,47,0.00,CLR,SCT,0.00,WeatherDisplay:10.37,2013-04-15 20:02:00,
2013-04-15 13:03:00,48.4,30.6,29.87,WNW,295,10.5,10.5,50,0.00,CLR,SCT,0.00,WeatherDisplay:10.37,2013-04-15 20:03:00,
2013-04-15 13:09:00,49.3,29.9,29.87,West,276,8.1,8.1,47,0.00,CLR,SCT,0.00,WeatherDisplay:10.37,2013-04-15 20:09:00,
2013-04-15 13:14:00,50.4,28.1,29.87,West,265,9.2,9.2,42,0.00,CLR,SCT,0.00,WeatherDisplay:10.37,2013-04-15 20:14:00,
2013-04-15 13:20:00,48.6,25.9,29.87,North,353,17.3,17.3,41,0.00,CLR,SCT,0.00,WeatherDisplay:10.37,2013-04-15 20:20:00,
2013-04-15 13:25:00,43.9,24.4,29.87,NNW,346,21.9,21.9,46,0.00,CLR,SCT,0.00,WeatherDisplay:10.37,2013-04-15 20:25:00,
2013-04-15 13:30:00,41.7,24.9,29.87,WNW,302,17.3,17.3,51,0.00,CLR,SCT,0.00,WeatherDisplay:10.37,2013-04-15 20:30:00,
2013-04-15 13:35:00,41.0,25.6,29.87,NNW,344,10.4,10.4,54,0.00,CLR,SCT,0.00,WeatherDisplay:10.37,2013-04-15 20:35:00,
2013-04-15 13:40:00,40.3,24.9,29.87,NNW,333,10.4,10.4,54,0.00,CLR,SCT,0.00,WeatherDisplay:10.37,2013-04-15 20:40:00,
2013-04-15 13:45:00,39.6,23.8,29.87,NW,307,12.7,12.7,53,0.00,CLR,SCT,0.00,WeatherDisplay:10.37,2013-04-15 20:45:00,
2013-04-15 13:51:00,39.2,25.2,29.87,WNW,301,8.1,8.1,57,0.00,CLR,SCT,0.00,WeatherDisplay:10.37,2013-04-15 20:51:00,
2013-04-15 13:56:00,39.0,25.5,29.87,WNW,283,8.1,8.1,58,0.00,CLR,SCT,0.00,WeatherDisplay:10.37,2013-04-15 20:56:00,
2013-04-15 14:02:00,38.8,26.9,29.87,NW,313,8.1,8.1,62,0.00,CLR,SCT,0.00,WeatherDisplay:10.37,2013-04-15 21:02:00,
2013-04-15 14:07:00,38.3,26.0,29.87,WNW,301,11.5,11.5,61,0.00,CLR,SCT,0.00,WeatherDisplay:10.37,2013-04-15 21:07:00,
2013-04-15 14:12:00,37.9,26.8,29.87,WSW,251,11.5,11.5,64,0.00,CLR,SCT,0.00,WeatherDisplay:10.37,2013-04-15 21:12:00,
2013-04-15 14:17:00,38.1,28.1,29.87,NNW,328,7.6,7.6,67,0.00,CLR,SCT,0.00,WeatherDisplay:10.37,2013-04-15 21:17:00,
2013-04-15 14:22:00,38.5,27.4,29.87,West,269,8.1,8.1,64,0.00,CLR,SCT,0.00,WeatherDisplay:10.37,2013-04-15 21:22:00,
2013-04-15 14:27:00,38.7,26.8,29.87,WNW,284,9.2,9.2,62,0.00,CLR,SCT,0.00,WeatherDisplay:10.37,2013-04-15 21:27:00,
2013-04-15 14:32:00,39.2,26.1,29.87,NW,312,5.8,5.8,59,0.00,CLR,SCT,0.00,WeatherDisplay:10.37,2013-04-15 21:32:00,
2013-04-15 14:37:00,39.7,25.3,29.87,NW,323,8.1,8.1,56,0.00,CLR,SCT,0.00,WeatherDisplay:10.37,2013-04-15 21:37:00,
2013-04-15 14:42:00,40.3,27.9,29.87,NW,318,5.8,6.7,61,0.00,CLR,SCT,0.00,WeatherDisplay:10.37,2013-04-15 21:42:00,
2013-04-15 14:47:00,40.5,27.2,29.87,West,274,8.1,8.1,59,0.00,CLR,SCT,0.00,WeatherDisplay:10.37,2013-04-15 21:47:00,
2013-04-15 14:53:00,41.0,26.5,29.90,NNW,332,9.2,9.2,56,0.00,CLR,SCT,0.00,WeatherDisplay:10.37,2013-04-15 21:53:00,
2013-04-15 14:58:00,41.9,27.3,29.90,West,276,9.2,9.2,56,0.00,CLR,SCT,0.00,WeatherDisplay:10.37,2013-04-15 21:58:00,
2013-04-15 15:03:00,43.5,28.4,29.90,West,273,9.2,9.2,55,0.00,CLR,SCT,0.00,WeatherDisplay:10.37,2013-04-15 22:03:00,
2013-04-15 15:08:00,44.4,26.9,29.90,WNW,302,10.4,10.4,50,0.00,CLR,SCT,0.00,WeatherDisplay:10.37,2013-04-15 22:08:00,
2013-04-15 15:13:00,44.6,25.6,29.90,NW,318,10.4,10.4,47,0.00,CLR,SCT,0.00,WeatherDisplay:10.37,2013-04-15 22:13:00,
2013-04-15 15:18:00,43.7,25.3,29.90,WNW,302,10.4,10.4,48,0.00,CLR,SCT,0.00,WeatherDisplay:10.37,2013-04-15 22:18:00,
2013-04-15 15:23:00,43.9,25.4,29.90,NNW,343,10.4,10.4,48,0.00,CLR,SCT,0.00,WeatherDisplay:10.37,2013-04-15 22:23:00,
2013-04-15 15:28:00,44.1,25.1,29.90,North,0,10.4,10.4,47,0.00,CLR,SCT,0.00,WeatherDisplay:10.37,2013-04-15 22:28:00,
2013-04-15 15:33:00,43.7,25.8,29.90,NNE,15,10.9,10.9,49,0.00,CLR,SCT,0.00,WeatherDisplay:10.37,2013-04-15 22:33:00,
2013-04-15 15:39:00,42.8,25.9,29.90,NE,40,15.0,15.0,51,0.00,CLR,SCT,0.00,WeatherDisplay:10.37,2013-04-15 22:39:00,
2013-04-15 15:44:00,42.4,25.6,29.90,NNE,23,9.2,9.2,51,0.00,CLR,SCT,0.00,WeatherDisplay:10.37,2013-04-15 22:44:00,
2013-04-15 15:49:00,43.0,24.6,29.90,NNE,22,8.1,8.1,48,0.00,CLR,SCT,0.00,WeatherDisplay:10.37,2013-04-15 22:49:00,
2013-04-15 15:54:00,43.3,24.9,29.90,ENE,67,9.2,9.2,48,0.00,CLR,SCT,0.00,WeatherDisplay:10.37,2013-04-15 22:54:00,
2013-04-15 15:59:00,44.1,25.6,29.90,ENE,58,5.0,10.0,48,0.00,CLR,SCT,0.00,WeatherDisplay:10.37,2013-04-15 22:59:00,
2013-04-15 16:04:00,45.9,27.3,29.90,WNW,299,10.4,10.4,48,0.00,CLR,SCT,0.00,WeatherDisplay:10.37,2013-04-15 23:04:00,
2013-04-15 16:10:00,47.3,25.3,29.90,WNW,297,10.4,10.4,42,0.00,CLR,SCT,0.00,WeatherDisplay:10.37,2013-04-15 23:10:00,
2013-04-15 16:15:00,47.8,25.8,29.90,NNW,335,5.8,6.3,42,0.00,CLR,SCT,0.00,WeatherDisplay:10.37,2013-04-15 23:15:00,
2013-04-15 16:20:00,48.2,25.6,29.90,NW,322,10.9,10.9,41,0.00,CLR,SCT,0.00,WeatherDisplay:10.37,2013-04-15 23:20:00,
2013-04-15 16:25:00,47.7,24.5,29.90,North,0,11.5,11.5,40,0.00,CLR,SCT,0.00,WeatherDisplay:10.37,2013-04-15 23:25:00,
2013-04-15 16:30:00,47.1,24.0,29.90,North,353,17.3,17.3,40,0.00,CLR,SCT,0.00,WeatherDisplay:10.37,2013-04-15 23:30:00,
2013-04-15 16:35:00,46.4,23.4,29.90,NW,326,11.5,11.5,40,0.00,CLR,SCT,0.00,WeatherDisplay:10.37,2013-04-15 23:35:00,
2013-04-15 16:40:00,46.0,23.6,29.90,NW,321,10.4,10.4,41,0.00,CLR,SCT,0.00,WeatherDisplay:10.37,2013-04-15 23:40:00,
2013-04-15 16:45:00,46.0,23.6,29.90,NW,317,8.1,8.1,41,0.00,CLR,SCT,0.00,WeatherDisplay:10.37,2013-04-15 23:45:00,
2013-04-15 16:51:00,45.9,23.5,29.90,NNW,328,15.0,15.0,41,0.00,CLR,SCT,0.00,WeatherDisplay:10.37,2013-04-15 23:51:00,
2013-04-15 16:57:00,45.1,22.8,29.90,NNW,345,11.5,11.5,41,0.00,CLR,SCT,0.00,WeatherDisplay:10.37,2013-04-15 23:57:00,
2013-04-15 17:02:00,44.6,22.9,29.90,NNW,341,15.0,15.0,42,0.00,CLR,SCT,0.00,WeatherDisplay:10.37,2013-04-16 00:02:00,
2013-04-15 17:07:00,43.0,23.1,29.93,NE,37,9.2,9.2,45,0.00,CLR,SCT,0.00,WeatherDisplay:10.37,2013-04-16 00:07:00,
2013-04-15 17:12:00,41.4,23.6,29.93,NNW,344,11.5,11.5,49,0.00,CLR,SCT,0.00,WeatherDisplay:10.37,2013-04-16 00:12:00,
2013-04-15 17:17:00,39.7,24.4,29.93,NNE,27,12.7,12.7,54,0.00,CLR,SCT,0.00,WeatherDisplay:10.37,2013-04-16 00:17:00,
2013-04-15 17:22:00,37.6,24.5,29.93,NNE,23,8.1,8.1,59,0.00,CLR,SCT,0.00,WeatherDisplay:10.37,2013-04-16 00:22:00,
2013-04-15 17:27:00,36.7,25.6,29.93,NNE,14,8.1,8.1,64,0.00,CLR,SCT,0.00,WeatherDisplay:10.37,2013-04-16 00:27:00,
2013-04-15 17:33:00,36.3,26.4,29.93,NNE,22,10.4,10.4,67,0.00,CLR,SCT,0.00,WeatherDisplay:10.37,2013-04-16 00:33:00,
2013-04-15 17:38:00,36.0,26.4,29.93,NNE,23,10.4,10.4,68,0.00,CLR,SCT,0.00,WeatherDisplay:10.37,2013-04-16 00:38:00,
2013-04-15 17:43:00,35.8,26.6,29.93,North,357,8.1,8.3,69,0.00,CLR,SCT,0.00,WeatherDisplay:10.37,2013-04-16 00:43:00,
2013-04-15 17:49:00,35.8,26.9,29.93,North,357,8.1,8.1,70,0.00,CLR,SCT,0.00,WeatherDisplay:10.37,2013-04-16 00:49:00,
2013-04-15 17:54:00,36.0,27.5,29.93,North,4,5.8,5.8,71,0.00,CLR,SCT,0.00,WeatherDisplay:10.37,2013-04-16 00:54:00,
2013-04-15 17:59:00,36.1,27.6,29.93,North,353,4.6,4.6,71,0.00,CLR,SCT,0.00,WeatherDisplay:10.37,2013-04-16 00:59:00,
2013-04-15 18:04:00,36.1,27.3,29.93,North,0,5.8,5.8,70,0.00,CLR,SCT,0.00,WeatherDisplay:10.37,2013-04-16 01:04:00,
2013-04-15 18:09:00,36.1,27.3,29.93,North,350,5.8,5.8,70,0.00,CLR,SCT,0.00,WeatherDisplay:10.37,2013-04-16 01:09:00,
2013-04-15 18:14:00,36.1,27.3,29.93,North,358,3.0,6.0,70,0.00,CLR,SCT,0.00,WeatherDisplay:10.37,2013-04-16 01:14:00,
2013-04-15 18:19:00,36.0,27.1,29.96,North,350,2.3,0.0,70,0.00,CLR,SCT,0.00,WeatherDisplay:10.37,2013-04-16 01:19:00,
2013-04-15 18:24:00,36.0,27.5,29.96,North,349,3.5,0.0,71,0.00,CLR,SCT,0.00,WeatherDisplay:10.37,2013-04-16 01:24:00,
2013-04-15 18:30:00,36.1,27.6,29.96,WNW,302,4.6,4.6,71,0.00,CLR,SCT,0.00,WeatherDisplay:10.37,2013-04-16 01:30:00,
2013-04-15 18:35:00,36.3,28.2,29.96,West,280,5.4,5.4,72,0.00,CLR,SCT,0.00,WeatherDisplay:10.37,2013-04-16 01:35:00,
2013-04-15 18:40:00,36.5,28.7,29.96,WNW,283,5.8,5.8,73,0.00,CLR,SCT,0.00,WeatherDisplay:10.37,2013-04-16 01:40:00,
2013-04-15 18:45:00,36.7,28.5,29.96,NW,312,4.0,4.0,72,0.00,CLR,SCT,0.00,WeatherDisplay:10.37,2013-04-16 01:45:00,
2013-04-15 18:50:00,36.7,28.2,29.96,NNW,336,8.1,8.1,71,0.00,CLR,SCT,0.00,WeatherDisplay:10.37,2013-04-16 01:50:00,
2013-04-15 18:55:00,36.9,28.3,29.96,NNW,337,5.8,5.8,71,0.00,CLR,SCT,0.00,WeatherDisplay:10.37,2013-04-16 01:55:00,
2013-04-15 19:01:00,37.0,28.2,29.96,NNW,330,5.8,5.8,70,0.00,CLR,SCT,0.00,WeatherDisplay:10.37,2013-04-16 02:01:00,
2013-04-15 19:06:00,37.2,28.7,29.96,NNW,344,3.5,3.5,71,0.00,CLR,SCT,0.00,WeatherDisplay:10.37,2013-04-16 02:06:00,
2013-04-15 19:12:00,37.6,29.0,29.96,NNW,343,5.8,5.8,71,0.00,CLR,SCT,0.00,WeatherDisplay:10.37,2013-04-16 02:12:00,
2013-04-15 19:17:00,36.9,26.9,29.96,NNE,33,12.7,12.7,67,0.00,CLR,SCT,0.00,WeatherDisplay:10.37,2013-04-16 02:17:00,
2013-04-15 19:22:00,35.8,26.9,29.96,North,7,8.1,8.1,70,0.00,CLR,SCT,0.00,WeatherDisplay:10.37,2013-04-16 02:22:00,
2013-04-15 19:27:00,35.4,28.0,29.96,NNE,24,6.9,6.9,74,0.00,CLR,SCT,0.00,WeatherDisplay:10.37,2013-04-16 02:27:00,
2013-04-15 19:32:00,35.1,28.6,29.96,North,11,5.8,5.8,77,0.00,CLR,SCT,0.00,WeatherDisplay:10.37,2013-04-16 02:32:00,
2013-04-15 19:38:00,34.9,28.7,29.96,North,5,3.5,3.5,78,0.00,CLR,SCT,0.00,WeatherDisplay:10.37,2013-04-16 02:38:00,
2013-04-15 19:43:00,34.9,28.7,29.96,North,353,4.6,4.6,78,0.00,CLR,SCT,0.00,WeatherDisplay:10.37,2013-04-16 02:43:00,
2013-04-15 19:48:00,34.9,28.7,29.96,North,353,3.6,3.6,78,0.00,CLR,SCT,0.00,WeatherDisplay:10.37,2013-04-16 02:48:00,
2013-04-15 19:53:00,34.7,28.5,29.96,North,0,3.5,3.5,78,0.00,CLR,SCT,0.00,WeatherDisplay:10.37,2013-04-16 02:53:00,
2013-04-15 19:58:00,34.7,28.5,29.96,North,0,3.5,0.0,78,0.00,CLR,SCT,0.00,WeatherDisplay:10.37,2013-04-16 02:58:00,
2013-04-15 20:03:00,34.5,28.4,29.96,North,353,2.3,2.3,78,0.00,CLR,SCT,0.00,WeatherDisplay:10.37,2013-04-16 03:03:00,
2013-04-15 20:08:00,34.3,27.9,29.99,North,353,3.5,3.5,77,0.00,CLR,SCT,0.00,WeatherDisplay:10.37,2013-04-16 03:08:00,
2013-04-15 20:13:00,34.3,28.2,29.99,NNW,346,3.5,3.5,78,0.00,CLR,SCT,0.00,WeatherDisplay:10.37,2013-04-16 03:13:00,
2013-04-15 20:19:00,34.2,28.3,29.99,NNW,345,4.0,4.0,79,0.00,CLR,SCT,0.00,WeatherDisplay:10.37,2013-04-16 03:19:00,
2013-04-15 20:24:00,34.2,28.3,29.99,NNW,345,2.3,2.7,79,0.00,CLR,SCT,0.00,WeatherDisplay:10.37,2013-04-16 03:24:00,
2013-04-15 20:29:00,34.0,28.2,29.99,North,0,3.5,3.5,79,0.00,CLR,SCT,0.00,WeatherDisplay:10.37,2013-04-16 03:29:00,
2013-04-15 20:34:00,34.0,28.2,29.99,North,357,2.3,0.0,79,0.00,CLR,SCT,0.00,WeatherDisplay:10.37,2013-04-16 03:34:00,
2013-04-15 20:39:00,34.0,28.2,29.99,North,0,2.3,2.3,79,0.00,CLR,SCT,0.00,WeatherDisplay:10.37,2013-04-16 03:39:00,
2013-04-15 20:44:00,34.0,28.2,29.99,North,360,0.0,4.0,79,0.00,CLR,SCT,0.00,WeatherDisplay:10.37,2013-04-16 03:44:00,
2013-04-15 20:50:00,34.0,28.2,29.99,North,0,0.0,0.0,79,0.00,CLR,SCT,0.00,WeatherDisplay:10.37,2013-04-16 03:50:00,
2013-04-15 20:55:00,33.8,28.0,29.99,North,0,0.0,0.0,79,0.00,CLR,SCT,0.00,WeatherDisplay:10.37,2013-04-16 03:55:00,
2013-04-15 21:00:00,33.6,27.8,29.99,North,0,3.5,3.5,79,0.00,CLR,SCT,0.00,WeatherDisplay:10.37,2013-04-16 04:00:00,
2013-04-15 21:01:00,33.6,27.8,29.99,North,0,2.3,2.3,79,0.00,CLR,SCT,0.00,WeatherDisplay:10.37,2013-04-16 04:01:00,
2013-04-15 21:03:00,33.6,28.1,29.99,North,0,2.3,2.3,80,0.00,CLR,SCT,0.00,WeatherDisplay:10.37,2013-04-16 04:03:00,
2013-04-15 21:08:00,33.6,28.1,29.99,North,0,0.0,0.0,80,0.00,CLR,SCT,0.00,WeatherDisplay:10.37,2013-04-16 04:08:00,
2013-04-15 21:13:00,33.4,27.9,29.99,North,0,0.0,0.0,80,0.00,CLR,SCT,0.00,WeatherDisplay:10.37,2013-04-16 04:13:00,
2013-04-15 21:19:00,33.3,27.8,29.99,North,0,0.0,0.0,80,0.00,CLR,SCT,0.00,WeatherDisplay:10.37,2013-04-16 04:19:00,
2013-04-15 21:24:00,33.3,27.8,30.02,North,0,0.0,0.0,80,0.00,CLR,SCT,0.00,WeatherDisplay:10.37,2013-04-16 04:24:00,
2013-04-15 21:29:00,33.3,27.8,30.02,North,0,0.0,0.0,80,0.00,CLR,SCT,0.00,WeatherDisplay:10.37,2013-04-16 04:29:00,
2013-04-15 21:34:00,32.9,27.4,30.02,North,0,3.5,3.5,80,0.00,CLR,SCT,0.00,WeatherDisplay:10.37,2013-04-16 04:34:00,
2013-04-15 21:39:00,32.9,27.4,30.02,North,0,3.5,3.5,80,0.00,CLR,SCT,0.00,WeatherDisplay:10.37,2013-04-16 04:39:00,
2013-04-15 21:45:00,32.9,27.4,30.02,North,0,0.0,0.0,80,0.00,CLR,SCT,0.00,WeatherDisplay:10.37,2013-04-16 04:45:00,
2013-04-15 21:50:00,32.9,27.7,30.02,North,0,0.0,0.0,81,0.00,CLR,SCT,0.00,WeatherDisplay:10.37,2013-04-16 04:50:00,
2013-04-15 21:55:00,32.9,27.7,30.02,North,0,0.0,0.0,81,0.00,CLR,SCT,0.00,WeatherDisplay:10.37,2013-04-16 04:55:00,
2013-04-15 22:00:00,32.9,27.7,30.02,North,0,0.0,0.0,81,0.00,CLR,SCT,0.00,WeatherDisplay:10.37,2013-04-16 05:00:00,
2013-04-15 22:05:00,32.9,27.7,30.02,North,0,0.0,0.0,81,0.00,CLR,SCT,0.00,WeatherDisplay:10.37,2013-04-16 05:05:00,
2013-04-15 22:10:00,32.9,27.7,30.02,North,0,0.0,0.0,81,0.00,CLR,SCT,0.00,WeatherDisplay:10.37,2013-04-16 05:10:00,
2013-04-15 22:15:00,32.9,28.0,30.02,North,0,0.0,0.0,82,0.00,CLR,SCT,0.00,WeatherDisplay:10.37,2013-04-16 05:15:00,
2013-04-15 22:20:00,32.7,28.7,30.02,North,0,0.0,0.0,85,0.00,CLR,SCT,0.00,WeatherDisplay:10.37,2013-04-16 05:20:00,
2013-04-15 22:26:00,32.7,29.3,30.02,North,0,3.5,0.0,87,0.00,CLR,SCT,0.00,WeatherDisplay:10.37,2013-04-16 05:26:00,
2013-04-15 22:31:00,32.7,29.6,30.02,North,0,2.3,0.0,88,0.00,CLR,SCT,0.00,WeatherDisplay:10.37,2013-04-16 05:31:00,
2013-04-15 22:36:00,32.7,29.6,30.02,North,0,3.5,3.5,88,0.00,CLR,SCT,0.00,WeatherDisplay:10.37,2013-04-16 05:36:00,
2013-04-15 22:41:00,32.5,29.1,30.02,North,0,3.6,0.0,87,0.00,CLR,SCT,0.00,WeatherDisplay:10.37,2013-04-16 05:41:00,
2013-04-15 22:46:00,32.5,29.1,30.02,North,0,0.0,0.0,87,0.00,CLR,SCT,0.00,WeatherDisplay:10.37,2013-04-16 05:46:00,
2013-04-15 22:51:00,32.5,29.1,30.02,North,0,0.0,0.0,87,0.00,CLR,SCT,0.00,WeatherDisplay:10.37,2013-04-16 05:51:00,
2013-04-15 22:57:00,32.7,29.3,30.02,North,0,0.0,0.0,87,0.00,CLR,SCT,0.00,WeatherDisplay:10.37,2013-04-16 05:57:00,
2013-04-15 23:02:00,32.7,29.0,30.02,North,0,2.3,0.0,86,0.00,CLR,SCT,0.00,WeatherDisplay:10.37,2013-04-16 06:02:00,
2013-04-15 23:07:00,32.5,28.5,30.02,North,0,2.3,0.0,85,0.00,CLR,SCT,0.00,WeatherDisplay:10.37,2013-04-16 06:07:00,
2013-04-15 23:12:00,32.4,28.1,30.02,North,0,2.3,2.3,84,0.00,CLR,SCT,0.00,WeatherDisplay:10.37,2013-04-16 06:12:00,
2013-04-15 23:17:00,32.2,28.2,30.02,North,0,3.5,3.5,85,0.00,CLR,SCT,0.00,WeatherDisplay:10.37,2013-04-16 06:17:00,
2013-04-15 23:22:00,32.0,28.0,30.02,North,0,3.5,3.5,85,0.00,CLR,SCT,0.00,WeatherDisplay:10.37,2013-04-16 06:22:00,
2013-04-15 23:28:00,31.8,27.8,30.02,North,0,3.5,3.5,85,0.00,CLR,SCT,0.00,WeatherDisplay:10.37,2013-04-16 06:28:00,
2013-04-15 23:33:00,31.6,27.6,30.02,North,0,0.0,0.0,85,0.00,CLR,SCT,0.00,WeatherDisplay:10.37,2013-04-16 06:33:00,
2013-04-15 23:38:00,31.6,27.6,30.02,North,0,0.0,0.0,85,0.00,CLR,SCT,0.00,WeatherDisplay:10.37,2013-04-16 06:38:00,
2013-04-15 23:43:00,31.3,27.0,30.02,North,0,0.0,0.0,84,0.00,CLR,SCT,0.00,WeatherDisplay:10.37,2013-04-16 06:43:00,
2013-04-15 23:48:00,31.1,26.8,30.02,North,0,3.5,3.5,84,0.00,CLR,SCT,0.00,WeatherDisplay:10.37,2013-04-16 06:48:00,
2013-04-15 23:53:00,31.1,26.8,30.02,North,0,3.5,3.5,84,0.00,CLR,SCT,0.00,WeatherDisplay:10.37,2013-04-16 06:53:00,
2013-04-15 23:59:00,31.1,26.8,30.02,North,0,2.3,0.0,84,0.00,CLR,SCT,0.00,WeatherDisplay:10.37,2013-04-16 06:59:00,